Salina Municipal Airport
KSLN : now visible

Airfield :











YOU CAN JOIN US ON...

 
LOGIN :

Register | Disclaimer

   EN    FR    IT 

 









Legend :    VFR   Marginal VFR   IFR   Intensive IFR   Very Intensive IFR
Visi :
Ceiling :
>= 8 km
>= 3000ft
5 to 8 km
1000 to 3000 ft
1500m to 5 km
500 to 1000 ft
800 to 1500m
200 to 500 ft
< 800m
< 200 ft
Symbols :   Thunderstorms  Fog  Heavy snow  Heavy precipitations  Wind > 20 kt






- Airport Elevation : 1288 ft
- IATA code : SLN


KSLN - Salina Municipal

CURRENT METAR :
  • 041353Z 16007KT 10SM CLR M04/M09 A3024 RMK AO2 SLP253 T10391089

EXPIRED METARs :
  • 041253Z 15006KT 10SM CLR M03/M09 A3025 RMK AO2 SLP258 T10281089
  • 041153Z AUTO 00000KT 10SM CLR M02/M09 A3026 RMK AO2 SLP258 T10221094 10006 21022 55002

TAF KSLN
Valid from the 04 at 12:00 until the 05 at 12:00 UTC


041134Z 0412/0512 VRB03KT P6SM BKN250
KZKC FIR / North America



MET'MAP, your aeronautical weather chart ! - Copyright ORBIFLY December 2007 - Disclaimer

ORBIFLY MET'MAP TEAM :

Programming & Development : Alexandra Zaïnal
Original concept : Baudouin d'Aumeries
Technical & hardware support : Manuel Goepfert
Assistance : Marc-Olivier Méhu




SOURCES & CREDITS :

   NOAA       Earth
Advisory